Simultaneous Nadir Overpasses (SNOs) Predictions

Prediction of SNOs between GOES-17 and METOP-B Satellite Orbit:

Table of predicted SNOs for the next 14.0 days since TLE Epoch: 9/3/2022
Index Date Time (GOES-17) GOES-17 Lat,Lon METOP-B Lat,Lon Distance(km) Time Diff (sec)
1 09/03/2022 18:42:35 -0.05,-137.31 0.22,-138.48 133.65 80
2 09/04/2022 18:24:35 -0.04,-137.31 -0.87,-133.48 435.71 80
3 09/06/2022 06:40:54 0.05,-137.31 -0.15,-138.08 88.32 80
4 09/07/2022 06:22:55 0.04,-137.30 1.00,-133.09 480.53 80
5 09/08/2022 18:39:05 -0.05,-137.29 0.03,-137.64 40.10 80
6 09/11/2022 06:37:24 0.05,-137.28 0.05,-137.24 4.75 80
7 09/13/2022 18:38:15 -0.05,-137.26 -0.18,-136.80 52.26 80
8 09/15/2022 06:54:33 0.05,-137.24 -0.90,-141.39 472.53 80
9 09/16/2022 06:36:33 0.05,-137.23 0.26,-136.40 95.60 80
